星链-4530 (STARLINK-4530 )

导读

STARLINK-4530是美国太空探索技术公司(SpaceX)于2022年8月10日发射的星链(Starlink)卫星,属于星链星座组网的成员卫星,主要用于为全球提供低延迟、高速率的卫星互联网接入服务,目前已在近地轨道运行,服务于星链全球网络覆盖,助力宽带互联网普及,尤其服务偏远区域与移动网络场景。

Basic Information
目录编号:
53393
目录名称:
STARLINK-4530
国际标识:
2022-097F
轨道中心:
EARTH
卫星名称:
星链-4530
卫星全名:
星链-4530 (STARLINK-4530 )
卫星状态:
在轨 (已飞行1494 天)
发射日期:
2022-08-10 UTC
国别 :
美国 (US)
星等 :
--
This satellite is enrolled in the Space Conjunction Data Service (SCDS) and the current flight risk assessment level is: No High Risk
Orbit Information
数据来源 国际轨道数据
星历时间: 2026-09-11T21:25:35+0800
21小时前
查看轨道信息
半长轴: 6837.875km
偏心率: 0.0001244
轨道倾角: 53.163°
近地点辐角 75.582°
升交点赤经 3.310°
平近点角 284.533°
近地点: 458.887km
远地点: 460.589km
周期: 93.787分钟
每日圈数: 15.353984
Detailed Information
固有亮度:
5
最大亮度:
2.5
卫星平台:
Starlink v1.5
覆盖范围:
全球
运营商:
太空探索技术公司
运营商所在国:
美国
制造商(研发单位):
太空探索技术公司
制造商所在国:
美国
使用方式:
暂无
Satellite Introduction
星链(Starlink)计划是由太空探索技术公司(SpaceX)提出的一个巨型低轨卫星互联网星座项目,计划在2019年至2024年间在太空搭建由约1.2万颗卫星组成的“星链”网络,其中1584颗将部署在地球上空550千米处的近地轨道,并从2020年开始工作。该卫星仍在工作。
2D Orbit Map
3D Orbit Map
Orbit Altitude Analysis Chart
Orbit Inclination Analysis Chart
Orbit Comprehensive Analysis Chart
View Comprehensive Chart
Conjunction Data List
Event ID Objects TCA Miss Dist (km) Collision Risk Probability Collision Risk Index (CRI) Action
CDM_260913-040105-339305-468923
OBJECT H (54689)
2026-09-13T
04:01:23+0000
1.075 km
极远距离
1.606209E-5 中风险 0.59
CDM_260913-014005-339305-468923
OBJECT H (54689)
2026-09-13T
01:40:42+0000
1.546 km
极远距离
4.670978E-6 低风险 0.48
CDM_260914-084005-339306-833221
2026-09-14T
08:40:22+0000
2.414 km
极远距离
1.656808E-6 低风险 0.39
CDM_260914-060905-339306-918622
2026-09-14T
06:09:41+0000
2.737 km
极远距离
1.332034E-6 低风险 0.37
CDM_260912-015605-339306-461021
2026-09-12T
01:56:45+0000
2.985 km
极远距离
1.207787E-6 低风险 0.37
CDM_260912-171705-339306-477922
2026-09-12T
17:17:40+0000
2.723 km
极远距离
1.130387E-6 低风险 0.36
CDM_260913-054605-339306-296121
2026-09-13T
05:46:35+0000
2.662 km
极远距离
1.118757E-6 低风险 0.36
CDM_260913-133505-339305-871221
2026-09-13T
13:35:02+0000
2.824 km
极远距离
1.018404E-6 低风险 0.35
Miss Distance Evolution Trend with All Objects
Collision Probability Evolution Trend with All Objects